Weather History for Broken Bow, NE

Change the Weather History Date:

Friday, June 21, 2013

  Actual Average Record
Temperature  
Mean Temperature 81 °F 70 °F  
Max Temperature 94 °F 83 °F 101 °F (1910)
Min Temperature 69 °F 58 °F 33 °F (1902)
Cooling Degree Days 16 6  
Month to date cooling degree days 78 86  
Year to date cooling degree days 113 120  
Since 1 June cooling degree days 78 86  
Growing Degree Days 31 (Base 50)    
Moisture  
Dew Point 63 °F    
Average Humidity 59    
Maximum Humidity 84    
Minimum Humidity 33    
Precipitation  
Precipitation 0.00 in 0.10 in 1.62 in (1947)
Sea Level Pressure  
Sea Level Pressure 29.69 in    
Wind  
Wind Speed 10 mph (SSE)    
Max Wind Speed 24 mph    
Max Gust Speed 33 mph    
Visibility 10 miles    
Events      
T = Trace of Precipitation, MM = Missing Value Source: NWS Daily Summary

Daily Weather History Graph

Daily Weather History Graph

Search for Another Location

Airport:

Trip Planner

Search our weather history database for the weather conditions in past years. The results will help you decide how hot, cold, wet, or windy it might be!

Date:

Astronomy

Jun. 21, 2013 Rise Set
Actual Time 6:05 AM CDT 9:15 PM CDT
Civil Twilight 5:31 AM CDT 9:49 PM CDT
Nautical Twilight 4:47 AM CDT 10:33 PM CDT
Astronomical Twilight 3:55 AM CDT 11:25 PM CDT
Moon 7:27 PM CDT (6/21) 4:23 AM CDT (6/21)
Length of Visible Light 16h 18m
Length of Day
15h 10m
Waxing Gibbous, 95% of the Moon is Illuminated
Jun 21
Waxing Gibbous
Jun 23
Full
Jun 29
Last Quarter
Jul 8
New
Jul 15
First Quarter

Hourly Weather History & Observations

Time (CDT) Temp. Heat Index Dew Point Humidity Pressure Visibility Wind Dir Wind Speed Gust Speed Precip Events Conditions
12:53 AM 73.0 °F - 66.9 °F 81% 29.73 in 10.0 mi SSE 4.6 mph - N/A   Clear
1:53 AM 75.0 °F - 64.9 °F 71% 29.71 in 10.0 mi SE 6.9 mph - N/A   Clear
2:53 AM 73.9 °F - 66.0 °F 76% 29.69 in 10.0 mi SSE 5.8 mph - N/A   Clear
3:53 AM 70.0 °F - 64.9 °F 84% 29.67 in 10.0 mi Calm Calm - N/A   Clear
4:53 AM 70.0 °F - 64.9 °F 84% 29.68 in 10.0 mi East 5.8 mph - N/A   Clear
5:53 AM 72.0 °F - 64.0 °F 76% 29.68 in 10.0 mi North 4.6 mph - N/A   Clear
6:53 AM 69.1 °F - 64.0 °F 84% 29.70 in 10.0 mi Calm Calm - N/A   Clear
7:53 AM 71.1 °F - 64.0 °F 78% 29.72 in 10.0 mi East 3.5 mph - N/A   Clear
8:53 AM 75.0 °F - 64.0 °F 69% 29.73 in 10.0 mi East 8.1 mph - N/A   Clear
9:53 AM 77.0 °F - 63.0 °F 62% 29.71 in 10.0 mi SSE 5.8 mph - N/A   Clear
10:53 AM 78.1 °F - 61.0 °F 56% 29.70 in 10.0 mi South 9.2 mph - N/A   Clear
11:53 AM 81.0 °F 81.9 °F 62.1 °F 52% 29.69 in 10.0 mi SSE 12.7 mph 17.3 mph N/A   Clear
12:53 PM 84.0 °F 84.4 °F 61.0 °F 46% 29.70 in 10.0 mi South 13.8 mph - N/A   Clear
1:53 PM 89.1 °F 89.0 °F 61.0 °F 39% 29.69 in 10.0 mi South 18.4 mph 25.3 mph N/A   Clear
2:53 PM 91.0 °F 91.5 °F 62.1 °F 38% 29.68 in 10.0 mi South 18.4 mph 26.5 mph N/A   Clear
3:53 PM 93.0 °F 93.0 °F 61.0 °F 34% 29.67 in 10.0 mi South 24.2 mph 33.4 mph N/A   Clear
4:53 PM 93.9 °F 94.0 °F 61.0 °F 33% 29.66 in 10.0 mi South 16.1 mph 26.5 mph N/A   Clear
5:53 PM 93.0 °F 92.7 °F 60.1 °F 33% 29.64 in 10.0 mi South 17.3 mph 26.5 mph N/A   Clear
6:53 PM 91.0 °F 90.9 °F 61.0 °F 36% 29.64 in 10.0 mi South 10.4 mph - N/A   Clear
7:53 PM 88.0 °F 87.9 °F 61.0 °F 40% 29.68 in 10.0 mi SSE 9.2 mph - N/A   Clear
8:53 PM 84.9 °F 85.4 °F 62.1 °F 46% 29.68 in 10.0 mi South 11.5 mph - N/A   Clear
9:53 PM 78.1 °F - 64.9 °F 64% 29.70 in 10.0 mi North 15.0 mph 25.3 mph N/A   Mostly Cloudy